RH
27 23 21 24 29 27 24 22 24 28 31 30 42 38 40 34 44 32 28 30 37 35 36 37 38 38 41 44 47 47 34 32 29 29 25 24 19 17 16 15 16 16 19 21 23
34 24 19 16 17 18 18 17 15 15 17 19 25 32 31 32 30 33 28 34 36 31 37 43 44 46 47 46 43 43 41 38 37 35 29 26 24 21 22 20 18 19 24 27 27
32 28 24 21 17 17 20 19 16 13 11 10 13 17 18 20 22 31 35 42 33 40 42 48 50 51 49 52 47 41 38 38 38 38 36 34 30 25 23 23 22 23 25 26 26
33 30 24 18 18 16 15 15 15 13 10 8 7 7 10 17 28 30 24 29 42 46 48 52 52 54 56 57 53 47 44 46 45 44 43 40 38 36 32 30 25 24 22 17 17
24 25 26 26 24 22 17 15 12 10 8 7 6 6 7 12 21 18 27 41 51 50 55 52 47 54 61 60 58 54 51 52 51 53 52 54 56 56 49 42 33 30 42 67 76
6 9 12 13 15 18 18 12 9 7 6 5 5 6 7 12 20 28 38 51 63 61 63 60 52 53 64 62 63 62 65 65 67 72 79 74 71 75 55 70 72 71 68 75 74
1 1 1 2 3 5 6 7 6 5 5 5 4 6 7 15 20 29 43 67 67 66 60 56 54 60 67 68 68 72 70 65 56 56 66 67 57 56 64 65 66 75 81 76 75
2 2 1 1 1 2 3 3 4 4 4 5 6 6 9 17 23 41 61 69 69 66 63 50 61 73 80 74 73 65 60 54 53 42 42 50 44 46 46 52 49 44 37 34 30
2 2 2 1 1 2 2 2 3 3 3 5 7 9 14 26 55 71 71 69 65 51 47 66 79 71 67 62 55 58 61 53 41 40 35 40 38 35 32 41 51 40 36 32 31
4 2 2 1 1 2 2 2 3 3 4 7 13 18 31 44 62 64 51 43 62 80 84 80 70 64 62 58 59 55 54 47 41 38 33 30 35 35 36 29 36 42 33 24 22
6 3 2 2 2 2 2 3 5 12 8 13 18 21 40 51 35 39 58 71 69 71 66 68 65 62 66 61 58 53 56 49 41 35 37 37 38 42 46 44 51 52 45 47 38
10 8 2 2 2 2 3 5 9 17 15 11 14 28 34 36 49 71 69 78 89 94 90 75 73 71 66 57 52 50 50 43 42 40 45 42 43 47 51 54 56 56 54 50 44
12 13 8 2 2 2 5 7 11 11 15 16 16 31 48 57 76 73 83 87 86 81 91 94 84 85 72 65 50 45 42 41 44 46 40 47 54 55 54 53 50 46 41 43 35
15 17 14 5 3 4 5 11 12 17 21 27 39 62 75 82 74 87 90 90 96 78 81 80 76 62 58 56 52 53 55 54 45 39 46 56 81 60 60 60 60 52 46 33 34
10 19 19 10 3 3 8 11 31 30 63 45 66 59 90 85 83 71 81 81 91 90 85 74 80 83 78 73 71 65 61 45 42 54 78 81 80 55 55 47 53 44 38 29 11
11 15 21 14 4 5 9 22 37 66 74 44 66 84 84 82 82 77 83 92 91 83 82 77 83 83 81 83 75 61 55 55 62 83 94 68 74 49 40 33 38 36 20 10 4
28 31 24 14 6 6 19 42 78 89 29 74 82 86 87 80 77 77 90 96 85 81 80 75 76 85 86 78 64 59 61 68 76 97 90 83 86 47 40 33 32 20 17 5 4
39 43 33 11 10 17 45 96 98 23 55 87 95 86 74 58 80 97 78 78 85 91 90 95 79 73 60 58 58 56 61 63 76 72 58 74 80 31 29 38 22 24 24 4 16
74 44 44 18 18 34 94 100 36 31 68 89 88 82 76 93 77 83 79 89 90 92 96 97 91 84 86 76 67 68 48 46 57 49 68 39 32 30 33 24 27 30 32 5 43
96 80 32 17 17 44 99 100 56 61 78 90 69 56 96 94 80 83 86 92 98 98 97 95 89 80 86 85 82 81 66 79 66 67 64 38 32 29 25 25 33 48 6 21 72
92 95 45 26 20 39 95 98 93 83 88 73 70 87 91 88 89 93 88 89 93 98 98 97 98 82 81 77 76 76 66 66 86 68 68 60 24 20 20 32 43 43 4 41 86
96 97 70 39 76 72 89 94 99 96 100 84 95 91 96 90 99 93 91 99 96 100 100 98 98 95 84 82 82 94 68 70 91 61 47 57 34 15 28 41 66 42 8 63 92
95 96 88 64 98 86 97 99 100 99 100 100 99 99 100 98 98 98 98 98 100 98 98 95 98 93 84 84 91 94 87 92 73 96 81 52 29 24 33 63 60 8 32 84 91
97 97 100 98 81 83 60 83 97 100 100 99 99 99 98 98 93 95 99 99 99 98 97 98 99 94 95 96 97 96 93 96 96 96 74 58 40 24 60 65 7 8 55 92 92
95 97 80 66 45 92 61 62 87 100 100 100 99 100 99 100 98 96 98 97 95 96 98 98 95 92 90 95 97 98 97 95 94 87 69 47 40 49 73 15 5 32 80 96 99
91 97 82 64 38 48 69 100 98 100 100 100 100 99 100 100 100 100 100 97 95 93 97 96 93 96 84 87 97 96 96 97 96 96 99 87 69 76 62 8 9 56 95 99 98
95 95 99 84 50 54 52 68 95 100 98 100 100 100 100 100 100 99 97 100 100 98 100 99 97 95 88 96 95 93 95 96 94 88 88 89 81 66 25 6 29 66 98 96 96
Wind_Speed
24 23 23 23 25 25 26 27 26 26 27 27 26 25 25 23 21 21 22 17 14 17 17 17 17 16 17 18 18 19 19 24 24 23 22 22 21 20 20 22 23 25 27 26 25
25 26 25 24 24 26 26 27 29 29 29 29 28 28 27 26 23 21 21 18 18 18 18 17 15 15 15 16 18 18 22 20 19 19 20 21 22 22 21 22 24 25 24 25 26
26 26 27 28 28 28 27 27 27 29 29 29 28 28 28 28 26 22 15 16 20 18 18 17 16 16 17 17 18 22 24 22 22 23 24 24 25 25 25 26 26 26 27 28 28
28 28 28 28 29 30 30 29 30 30 29 30 30 28 28 26 17 14 20 21 18 19 18 18 18 18 18 19 20 22 22 23 23 23 25 26 27 28 29 27 29 27 27 27 26
31 30 31 31 30 32 32 32 34 33 33 30 30 26 24 21 20 21 20 18 18 18 17 17 17 18 18 18 19 22 22 22 22 23 25 27 27 28 30 28 28 27 28 27 27
31 32 32 31 32 30 33 34 33 32 33 34 31 25 22 19 19 19 17 20 20 19 18 19 21 20 20 20 19 22 23 24 26 26 29 31 30 32 31 30 32 33 33 33 33
29 31 31 31 30 30 29 31 32 32 30 31 31 27 21 18 18 18 21 19 18 19 20 23 24 20 19 18 19 19 22 23 25 26 26 26 29 26 18 19 22 27 29 30 31
32 31 32 32 30 28 28 28 29 30 30 29 27 26 21 18 17 18 19 18 18 22 28 28 22 19 18 19 22 21 22 19 11 17 17 18 26 16 14 12 14 15 16 20 22
31 31 32 32 33 29 26 25 26 28 28 27 26 24 20 18 15 15 16 20 26 30 28 19 17 17 17 16 16 14 13 16 18 12 18 16 24 17 20 22 21 21 24 25 25
30 31 31 31 32 31 26 23 22 24 25 25 24 19 16 15 13 15 23 25 18 13 13 11 13 14 13 12 6 9 15 20 21 15 26 26 31 22 21 24 21 25 27 26 27
33 32 32 31 31 31 25 22 21 21 22 20 21 20 17 17 21 19 16 9 8 8 10 10 12 13 11 12 15 17 19 23 23 21 30 26 33 25 23 27 26 27 28 29 29
34 33 32 32 31 31 27 21 20 20 19 21 23 21 19 17 11 10 6 7 7 9 11 14 17 14 15 13 14 18 21 23 23 16 29 28 35 31 29 28 28 28 29 32 30
38 35 33 32 30 30 28 24 20 20 18 18 20 17 10 8 7 6 5 6 8 11 10 13 10 15 15 18 15 16 20 22 24 24 26 25 24 8 8 9 7 9 8 10 12
41 37 35 32 30 28 26 24 22 18 12 9 9 7 7 6 6 8 10 11 12 12 15 12 5 7 11 12 13 17 16 16 18 18 6 15 8 22 15 9 7 6 6 10 17
46 40 35 33 30 27 24 21 17 12 5 5 8 9 7 4 5 7 8 11 13 14 14 11 15 16 15 15 13 12 16 17 20 20 19 12 6 5 5 2 2 6 9 14 24
47 43 37 33 29 26 22 16 13 5 6 7 9 10 9 9 10 9 11 10 11 12 12 14 16 16 15 13 12 13 15 17 16 8 2 2 6 5 2 1 4 8 13 24 25
42 41 37 32 26 23 17 12 7 8 6 8 9 11 12 15 15 11 8 9 9 7 6 12 16 14 13 12 11 9 6 5 4 1 5 2 7 11 7 6 6 12 22 24 21
36 34 32 30 24 19 14 12 10 9 9 9 11 12 14 10 6 7 8 9 8 7 10 5 4 3 3 7 6 7 6 4 4 2 4 7 7 2 3 5 9 20 27 26 22
24 30 29 23 21 17 18 17 10 11 13 12 12 13 6 5 5 6 7 6 6 7 4 4 4 9 11 11 9 3 4 5 5 5 3 5 7 10 5 6 14 24 28 20 20
19 24 23 21 17 16 22 23 12 14 13 13 10 6 7 7 6 3 3 3 5 5 1 4 8 10 8 9 12 13 6 2 3 2 4 5 7 5 2 9 19 29 23 18 20
22 20 23 16 15 17 25 17 17 16 18 12 9 7 6 6 7 4 4 5 7 5 9 8 7 6 9 7 8 9 10 7 6 4 3 3 4 3 6 16 23 30 23 22 22
19 20 18 13 14 17 26 19 16 14 15 13 11 13 8 6 2 5 6 4 7 10 10 7 7 10 12 11 11 13 9 11 5 3 5 3 7 3 13 20 30 28 21 22 23
20 18 18 13 19 22 21 21 16 13 11 7 8 9 9 7 3 6 6 8 8 10 4 10 5 8 4 3 11 12 13 17 17 12 10 3 4 6 20 29 34 20 20 20 19
17 14 20 19 22 19 18 18 17 12 11 10 9 8 7 6 8 5 6 9 8 9 17 12 13 14 10 11 16 15 16 17 18 8 8 20 21 22 24 32 18 17 19 18 17
22 14 19 12 25 22 18 13 15 11 13 13 8 10 8 6 6 9 9 7 13 17 11 9 12 16 18 20 21 24 24 23 21 21 14 14 18 18 29 19 17 14 16 16 15
19 16 22 21 18 14 20 16 16 16 10 11 9 9 10 9 9 11 13 14 13 13 10 12 12 16 29 19 13 16 18 22 26 29 36 33 31 23 21 16 13 14 14 14 13
13 22 18 19 20 14 16 15 16 16 12 10 10 10 8 8 10 13 15 16 19 22 25 23 17 12 7 9 17 13 2 9 20 24 20 24 18 13 13 12 10 12 12 12 13
Wind_Direction
324 320 316 316 312 310 309 307 304 303 300 299 296 299 297 302 303 306 309 298 290 299 298 295 292 283 275 270 269 266 260 266 274 281 284 283 282 280 273 267 264 263 264 266 267
323 320 317 313 310 309 306 306 303 300 296 296 296 296 297 297 299 299 296 280 290 296 295 294 289 283 278 275 270 265 265 273 276 277 276 277 277 276 272 267 266 266 268 268 266
315 314 313 312 312 308 306 304 302 299 297 294 292 292 293 294 296 296 272 278 294 290 291 288 289 289 285 280 275 271 273 277 272 272 276 275 274 274 273 270 270 268 265 266 269
315 313 313 313 310 308 308 306 304 301 297 296 294 290 289 288 290 271 278 287 286 288 287 288 292 292 288 281 274 271 276 278 279 279 276 276 276 276 273 276 271 269 270 270 268
310 308 306 305 305 305 305 304 304 302 298 294 292 293 288 284 281 280 282 278 282 279 279 290 298 295 287 279 276 279 281 282 283 279 279 279 278 280 274 272 272 273 270 269 268
315 311 307 303 301 299 299 300 299 299 297 295 294 292 290 290 282 281 277 282 277 271 274 292 300 295 283 280 276 280 283 284 282 284 284 282 282 275 282 283 274 270 268 269 269
322 318 314 308 303 300 298 296 297 296 294 292 295 290 288 283 275 274 281 275 268 270 283 295 296 283 278 280 280 284 285 283 286 286 280 283 283 290 285 282 277 269 268 268 267
321 320 319 314 308 303 300 299 298 296 293 287 286 286 288 280 275 276 273 268 269 278 285 289 284 275 273 279 281 285 290 292 289 300 294 288 288 297 304 291 282 273 276 274 272
317 318 317 316 312 308 304 301 302 298 293 290 284 284 285 279 270 266 269 276 281 287 286 284 273 273 275 275 281 281 274 286 300 292 296 291 289 300 298 285 278 277 277 275 273
313 315 315 315 313 309 308 307 304 301 297 292 286 282 262 257 257 274 283 285 290 302 303 283 268 268 274 273 264 280 285 289 293 303 296 292 292 297 292 282 274 269 273 276 274
312 313 314 314 313 309 308 309 306 301 297 288 275 271 264 268 277 279 278 291 303 301 289 278 273 276 286 265 278 280 281 287 300 302 293 299 295 297 284 275 271 271 270 271 273
303 308 312 312 311 309 306 304 305 294 293 288 280 275 270 276 269 258 259 287 307 298 283 283 290 275 257 266 274 280 285 290 303 300 301 303 296 300 282 274 267 265 267 265 266
298 299 303 307 309 306 303 302 300 301 298 278 270 267 260 249 246 231 252 277 314 315 298 286 286 283 276 278 277 278 286 298 297 305 303 303 308 295 303 296 284 278 271 258 254
294 295 296 299 302 302 301 300 303 309 301 271 237 216 218 229 225 223 292 288 289 298 296 297 286 283 286 281 282 288 292 295 296 306 296 301 288 299 291 284 276 278 268 264 279
287 288 289 292 294 295 293 292 296 309 337 220 205 208 207 228 262 271 279 285 289 291 285 278 285 289 285 288 287 285 295 296 296 293 297 284 230 276 302 332 262 268 276 290 303
276 277 277 281 284 285 287 283 283 270 254 210 200 205 226 251 274 278 290 284 291 290 283 283 273 276 282 282 281 286 296 299 288 286 299 255 215 276 292 73 278 284 309 312 312
267 267 265 265 269 272 269 259 244 220 210 221 218 222 247 264 275 280 267 272 291 303 289 291 287 271 270 275 275 274 305 316 341 8 226 218 232 261 284 279 288 311 323 323 326
264 262 261 259 255 249 239 216 225 244 208 207 211 230 261 260 248 252 277 295 296 296 301 300 292 270 252 261 254 275 259 219 248 275 286 246 242 266 267 290 306 329 335 338 333
250 257 265 268 264 233 201 211 239 232 220 219 235 261 232 198 243 273 281 265 262 261 260 291 273 282 274 267 261 264 202 225 286 289 302 246 274 277 259 276 326 336 334 334 328
241 251 249 262 270 243 213 226 241 223 213 223 226 218 194 209 267 288 270 241 257 265 287 277 287 278 272 268 257 234 236 216 221 324 293 278 275 255 277 330 331 336 338 336 337
243 246 245 243 244 222 227 235 255 238 223 233 215 210 210 241 241 242 261 279 287 313 321 304 254 268 283 267 253 233 228 218 227 237 199 300 279 306 331 328 339 340 341 342 346
228 236 245 242 209 212 222 236 252 234 226 229 215 195 213 225 254 236 238 242 289 303 314 311 281 271 280 268 249 245 226 230 209 203 232 250 277 305 328 337 336 337 339 347 350
215 225 238 216 212 214 221 232 239 226 225 211 197 198 214 222 228 230 245 258 273 292 290 307 266 305 289 274 252 251 245 238 232 255 237 191 258 312 334 331 328 338 345 350 355
223 221 221 226 226 233 231 241 236 228 219 212 200 205 204 220 229 250 265 284 301 282 299 299 258 247 248 278 291 276 265 252 238 224 240 233 269 302 325 328 336 344 350 353 358
214 224 230 232 233 230 229 234 221 222 208 220 217 207 211 210 242 262 273 290 297 296 296 281 276 281 282 285 283 277 270 261 242 238 241 256 266 300 322 329 337 347 354 360 4
257 228 231 232 246 232 232 217 210 204 208 212 199 201 214 229 240 258 276 283 291 296 291 291 281 296 301 301 290 285 273 255 256 253 257 261 276 305 309 321 340 348 358 7 12
276 216 210 233 238 233 237 226 216 204 216 207 206 221 232 240 253 264 275 276 272 277 281 285 280 294 280 300 309 297 347 262 254 257 262 264 289 286 304 321 336 355 4 15 24